Preview of NWS' New Version of Forecast
This preview is not operational and should not be used for support decisions.

Regional Weather Roundup (RWR)

Issued by National Weather Service (NWS)

                            
000
ASUS42 KTBW 180517
RWRFL 
FLORIDA REGIONAL WEATHER ROUNDUP
NATIONAL WEATHER SERVICE TAMPA BAY RUSKIN FL
1200 AM EST MON FEB 18 2019

NOTE: "FAIR" INDICATES FEW OR NO CLOUDS BELOW 12,000 FEET WITH NO
SIGNIFICANT WEATHER AND/OR OBSTRUCTIONS TO VISIBILITY.

FLZ001>010-012>015-112-114-115-180600-
PANHANDLE FLORIDA
  
CITY           SKY/WX    TMP DP  RH WIND       PRES   REMARKS
PENSACOLA      MOCLDY    70  68  93 S9        29.91S                  
PENSACOLA NAS  CLOUDY    68  68 100 S10       29.91S FOG              
MILTON NAS     CLOUDY    69  69 100 S8        29.91  FOG              
CRESTVIEW      CLOUDY    70  68  93 SW8       29.93S                  
DUKE FIELD     CLOUDY    70  70 100 S7        29.92R                  
VALPARAISO     CLOUDY    69  69 100 S8        29.91S                  
MARY ESTHER    CLOUDY    67  67  97 S9        29.91R FOG              
PANAMA CITY    LGT RAIN  70  68  93 S9        29.93S                  
TYNDALL AFB    FOG       67  66  97 S10       29.93F VSB 1/4          
APALACHICOLA   FOG       67  66  97 S10       29.95S VSB 1/4          

STATION/POSITION SKY/WX   TEMP    WIND        PRES    WAVE   SWELL
                          AIR SEA DIR/SP/G            HT/PER HT/PER
                          (F)     (DEG/KT/KT) (MB)    (FT/S) (FT/S)
30.1N   87.6W              67     150/  6/  6   N/A     2/ 6   2/ 6
29.2N   88.2W                     130/  4/  4 1013.5R   4/ 6   3/ 6
PANAMA CITY BEAC           65 63  160/ 11/ 11 1013.9F
TOWER C                    68     180/ 17/ 17 1014.6F

$$
FLZ011-016>038-118-127-128-134-139-239-180600-
NORTH FLORIDA
  
CITY           SKY/WX    TMP DP  RH WIND       PRES   REMARKS
MARIANNA       CLOUDY    70  70 100 S7        29.92S                  
TALLAHASSEE    CLOUDY    70  70 100 S9        29.96S                  
PERRY          CLOUDY    72  70  94 S9        29.98S                  
LIVE OAK       CLOUDY    70  70 100 CALM      29.98S                  
CROSS CITY     CLOUDY    71  69  92 S9        30.00R                  
LAKE CITY      CLOUDY    70  68  94 SW6       29.99S                  
GAINESVILLE    CLOUDY    74  66  76 SW5       30.02S                  
WILLISTON        N/A    N/A N/A N/A MISG        N/A                   
PALATKA        MOCLDY    64  64 100 CALM      30.01R                  
MAYPORT NAS    MOCLDY    64  62  93 CALM      29.99R                  
JACKSONVILLE   FAIR      62  61  96 S5        29.98S                  
JAX NAS        FAIR      69  65  86 S7        30.00R                  
JAX CECIL      FAIR      70  66  88 SW5       29.99S                  
FERNANDINA BEA FAIR      63  62  95 S5        29.99S                  
ST AUGUSTINE   MOCLDY    67  64  90 S5        30.01R                  
PALM COAST     FAIR      66  64  93 CALM      30.00S                  

STATION/POSITION SKY/WX   TEMP    WIND        PRES    WAVE   SWELL
                          AIR SEA DIR/SP/G            HT/PER HT/PER
                          (F)     (DEG/KT/KT) (MB)    (FT/S) (FT/S)
SHELL POINT      NOT AVBL
KEATON BEACH               67     180/ 13/ 15 1015.5R
CEDAR KEY                  68     200/ 13/ 16 1016.2R
FERNANDINA                        180/  3/  4   N/A
30.7N   81.3W                 59                N/A     2/ 7
MAYPORT                    65 60  200/  1/  3 1015.5R
31.4N   80.9W              63 58  180/ 14/ 16 1014.8S   2/ 8   2/ 8
ST AUGUSTINE               68 60  220/  5/  5 1016.0R

$$
FLZ040-043>046-052-053-057-058-063-144-180600-
INTERIOR CENTRAL FLORIDA
  
CITY           SKY/WX    TMP DP  RH WIND       PRES   REMARKS
OCALA          FAIR      68  64  87 SW5       30.01S                  
LEESBURG       FAIR      70  65  84 S6        30.02S                  
SANFORD        FAIR      73  65  75 S6        30.01S                  
ORLANDO EXEC   FAIR      72  62  71 SW6       30.02R                  
ORLANDO INTL   FAIR      70  61  73 SW6       30.02S                  
KISSIMMEE      FAIR      70  63  78 SW6       30.03S                  
WINTER HAVEN   FAIR      72  64  76 SW5       30.04R                  
LAKELAND       FAIR      68  63  83 SW3       30.03S                  
BARTOW         FAIR      68  64  88 S6        30.02S                  
SEBRING        MOCLDY    70  64  83 S7        30.04S                  
OKEECHOBEE     CLOUDY    72  68  88 S6        30.04S                  

$$
FLZ041-047-054-059-064-141-147-180600-
EAST CENTRAL FLORIDA
  
CITY           SKY/WX    TMP DP  RH WIND       PRES   REMARKS
DAYTONA BEACH  FAIR      68  67  96 S3        30.01S                  
DELAND         FAIR      68  64  88 CALM      30.01S                  
JFK SPACE CTR  FAIR     N/A N/A N/A S6        30.03R                  
CAPE CANAVERAL FAIR      72  67  87 S10       30.01S                  
PATRICK AFB    FAIR      73  71  94 S10       30.02S                  
MELBOURNE      FAIR      73  67  81 S8        30.03S                  
VERO BEACH     FAIR      73  68  84 S7        30.04S                  
FT PIERCE      FAIR      73  67  81 S7        30.04S                  
STUART         FAIR      73  68  83 S5        30.06S                  

STATION/POSITION SKY/WX   TEMP    WIND        PRES    WAVE   SWELL
                          AIR SEA DIR/SP/G            HT/PER HT/PER
                          (F)     (DEG/KT/KT) (MB)    (FT/S) (FT/S)
28.5N   80.2W              69     190/ 12/ 14 1017.2
28.9N   78.5W              75 76  170/ 14/ 17 1018.1F   3/ 9   2/ 9
TRIDENT PIER               73 66  180/ 12/ 15 1017.6F
28.4N   80.5W                 65                N/A     2/ 4

$$
FLZ050-056-061-142-242-148-248-149-249-151-251-155-255-
160-260-180600-
WEST CENTRAL FLORIDA
  
CITY           SKY/WX    TMP DP  RH WIND       PRES   REMARKS
CRYSTAL RIVER  FAIR      70  64  83 CALM      30.01S                  
INVERNESS      FAIR      66  66 100 S3        30.01F                  
BROOKSVILLE    FAIR      67  64  90 S6        30.02S                  
CLEARWATER AIR FAIR      70  66  88 S5        30.01S                  
ST PETE CLEARW FAIR      70  66  87 S7        30.01S                  
TAMPA INTL     FAIR      72  67  84 S7        30.02S                  
TAMPA EXEC     FAIR      68  64  88 S5        30.03S                  
PLANT CITY     FAIR      70  64  83 S5        30.04S                  
MACDILL AFB    FAIR      69  67  91 S6        30.01S                  
PETER O KNIGHT MOCLDY   N/A N/A N/A S6        30.02F                  
ST PETERSBURG  NOT AVBL                                               
SARASOTA       FAIR      71  68  90 SE8       30.00S                  
VENICE         FAIR      73  68  83 S10       30.02S                  

STATION/POSITION SKY/WX   TEMP    WIND        PRES    WAVE   SWELL
                          AIR SEA DIR/SP/G            HT/PER HT/PER
                          (F)     (DEG/KT/KT) (MB)    (FT/S) (FT/S)
27.3N   84.2W                 71                N/A     4/ 7
CLEARWATER BEACH           73 68  150/  8/ 12 1016.4S
MIDDLE TAMPA BAY           70     170/  6/  6 1016.7R
VENICE                     73 68  150/ 11/ 13   N/A

$$
FLZ066-069-070-075>078-162-262-165-265-180600-
SOUTHWEST FLORIDA AND KEYS
  
CITY           SKY/WX    TMP DP  RH WIND       PRES   REMARKS
PUNTA GORDA    FAIR      65  63  93 CALM      30.04S                  
FT MYERS       MOCLDY    73  68  84 S6        30.02S                  
SOUTHWEST INTL CLOUDY    73  68  84 S8        30.03S                  
NAPLES         MOCLDY    75  71  87 SE8       30.03S                  
MARCO ISLAND   CLOUDY    74  72  93 SE6       30.04                   
IMMOKALEE      CLOUDY    72  66  83 S3        30.02S                  
MARATHON       FAIR      81  74  79 SE12G18   30.03S                  
KEY WEST NAS   FAIR      79  75  87 SE12      30.02S                  
KEY WEST INTL  FAIR      79  75  87 SE13      30.02F                  

STATION/POSITION SKY/WX   TEMP    WIND        PRES    WAVE   SWELL
                          AIR SEA DIR/SP/G            HT/PER HT/PER
                          (F)     (DEG/KT/KT) (MB)    (FT/S) (FT/S)
NAPLES                     75 71  110/  4/  6 1016.8S
26.0N   85.6W              79 80  160/ 14/ 17 1014.1
DRY TORTUGAS               77     130/ 10/ 11 1015.8F
SAND KEY                   78                 1016.6R
SOMBRERO KEY               78                 1016.2S
LONG KEY                   78 76  140/ 13/ 15 1016.7F
MOLASSES REEF              78 78  140/ 14/ 15 1017.5F

$$
FLZ067-068-071>074-168-172>174-180600-
SOUTHEAST FLORIDA 
  
CITY           SKY/WX    TMP DP  RH WIND       PRES   REMARKS
W PALM BEACH   MOCLDY    76  70  82 SE8       30.05F                  
FT LAUDER-EXEC FAIR      76  74  93 SE7       30.05S                  
FT LAUDERDALE  MOCLDY    77  74  90 SE9       30.04S                  
POMPANO BEACH  MOCLDY    78  72  81 SE10      30.05S                  
PEMBROKE PINES MOCLDY    76  71  85 SE5       30.06S                  
OPA LOCKA      FAIR      76  71  85 SE7       30.05F                  
MIAMI          FAIR      76  74  93 SE8       30.05S                  
WEST KENDALL   MOCLDY    77  73  87 SE6       30.05S                  
HOMESTEAD      MOCLDY    77  73  88 SE7       30.04S                  

STATION/POSITION SKY/WX   TEMP    WIND        PRES    WAVE   SWELL
                          AIR SEA DIR/SP/G            HT/PER HT/PER
                          (F)     (DEG/KT/KT) (MB)    (FT/S) (FT/S)
PORT EVERGLADES            78     140/ 10/ 13 1017.5
VIRGINIA KEY               77 77  140/  8/ 10 1017.0S
LAKE WORTH                 77 77  190/ 13/ 14 1018.8S
FOWEY ROCKS                78 76  140/ 18/ 18 1018.1R
SETTLEMENT POINT           76     140/  7/  8 1018.2F

$$